Location: �bnet
(46.9957°N, 8.4908°E)
Time: 15:33:38
(UTC+00:00)

RESURS DK-1 - Pass Details

Date: 11 May 2021
Orbit: 553 x 564 km, 69.9° (Epoch: 17 June)

Event Time Altitude Azimuth Distance (km) Brightness Sun altitude
Rises 22:57:18 0° 333° (NNW) 2,766 7.1 -24.6°
Reaches altitude 10° 22:59:33 10° 337° (NNW) 1,866 6.0 -24.7°
Enters shadow 23:03:29 61° 43° (NE) 646 2.7 -24.7°
